Location: *
(2.5500°S, 65.9667°W)
Time: 12:25:50
(UTC+00:00)

Spot 2 - Pass Details

Date: 26 October 2021
Orbit: 570 x 772 km, 98.7° (Epoch: 28 November)

Event Time Altitude Azimuth Distance (km) Brightness Sun altitude
Rises 23:32:56 0° 167° (SSE) 2,777 7.4 -20.1°
Reaches altitude 10° 23:35:04 10° 166° (SSE) 1,873 6.5 -20.6°
Maximum altitude 23:39:06 86° 77° (ENE) 578 3.7 -21.6°
Drops below altitude 10° 23:43:10 10° 349° (N) 1,889 6.5 -22.6°
Sets 23:45:20 0° 349° (NNW) 2,803 7.4 -23.1°
